TimeCST,TemperatureF,Dew PointF,Humidity,Sea Level PressureIn,VisibilityMPH,Wind Direction,Wind SpeedMPH,Gust SpeedMPH,PrecipitationIn,Events,Conditions,WindDirDegrees,DateUTC
12:56 AM,21.0,12.9,71,29.99,10.0,West,5.8,-,N/A,,Clear,270,2013-02-24 06:56:00
1:56 AM,19.0,12.9,77,29.99,10.0,Calm,Calm,-,N/A,,Clear,0,2013-02-24 07:56:00
2:56 AM,15.1,10.9,84,30.01,7.0,West,3.5,-,N/A,,Clear,260,2013-02-24 08:56:00
3:56 AM,10.9,8.1,88,30.01,6.0,WSW,5.8,-,N/A,,Clear,250,2013-02-24 09:56:00
4:56 AM,10.9,7.0,84,30.03,5.0,West,5.8,-,N/A,,Clear,270,2013-02-24 10:56:00
5:56 AM,8.1,3.0,80,30.06,6.0,Calm,Calm,-,N/A,,Haze,0,2013-02-24 11:56:00
6:56 AM,5.0,1.9,87,30.08,5.0,Calm,Calm,-,N/A,,Clear,0,2013-02-24 12:56:00
7:56 AM,8.1,5.0,87,30.10,5.0,Calm,Calm,-,N/A,,Clear,0,2013-02-24 13:56:00
8:56 AM,12.9,10.0,88,30.12,6.0,West,3.5,-,N/A,,Clear,270,2013-02-24 14:56:00
9:56 AM,21.0,15.1,78,30.12,8.0,Calm,Calm,-,N/A,,Clear,0,2013-02-24 15:56:00
10:56 AM,26.1,17.1,69,30.11,9.0,Calm,Calm,-,N/A,,Clear,0,2013-02-24 16:56:00
11:56 AM,33.1,19.0,56,30.11,10.0,Calm,Calm,-,N/A,,Clear,0,2013-02-24 17:56:00
12:56 PM,35.1,19.9,54,30.10,10.0,ENE,3.5,-,N/A,,Clear,60,2013-02-24 18:56:00
1:56 PM,37.0,19.0,48,30.09,10.0,NNE,3.5,-,N/A,,Clear,30,2013-02-24 19:56:00
2:56 PM,36.0,21.0,55,30.09,10.0,Calm,Calm,-,N/A,,Clear,0,2013-02-24 20:56:00
3:56 PM,34.0,21.0,59,30.09,10.0,SSW,5.8,-,N/A,,Clear,200,2013-02-24 21:56:00
4:56 PM,33.1,18.0,54,30.09,10.0,South,6.9,-,N/A,,Clear,190,2013-02-24 22:56:00
5:56 PM,28.9,17.1,61,30.11,10.0,Calm,Calm,-,N/A,,Clear,0,2013-02-24 23:56:00
6:56 PM,21.9,16.0,78,30.13,10.0,Calm,Calm,-,N/A,,Clear,0,2013-02-25 00:56:00
7:56 PM,23.0,16.0,74,30.14,10.0,Calm,Calm,-,N/A,,Clear,0,2013-02-25 01:56:00
8:56 PM,19.0,14.0,81,30.14,9.0,East,3.5,-,N/A,,Clear,90,2013-02-25 02:56:00
9:56 PM,18.0,12.9,81,30.13,9.0,NE,3.5,-,N/A,,Clear,50,2013-02-25 03:56:00
10:56 PM,19.0,14.0,81,30.14,9.0,Calm,Calm,-,N/A,,Partly Cloudy,0,2013-02-25 04:56:00
11:56 PM,18.0,12.9,81,30.14,8.0,Calm,Calm,-,N/A,,Clear,0,2013-02-25 05:56:00